<?xml version='1.0' encoding='UTF-8'?>
<gpx xmlns="http://www.topografix.com/GPX/1/1" creator="www.balnam.be" version="1.1" xmlns:xsi="http://www.w3.org/2001/XMLSchema-instance" xsi:schemaLocation="http://www.topografix.com/GPX/1/1 http://www.topografix.com/GPX/1/1/gpx.xsd">
<trk>
<name>negbl1</name>
<cmt>r</cmt>
<desc>Bolinne Chemin n°1 Rue Ernest Féron</desc>
<link href="https://chemins.be/bolinne/chemin/1"/><trkseg>
<trkpt lat="50.610294" lon="4.928502"><time>2026-05-03T02:15:54Z</time></trkpt>
<trkpt lat="50.609583" lon="4.928720"><time>2026-05-03T02:25:54Z</time></trkpt>
<trkpt lat="50.608380" lon="4.928381"><time>2026-05-03T02:35:54Z</time></trkpt>
<trkpt lat="50.607657" lon="4.929036"><time>2026-05-03T02:45:54Z</time></trkpt>
<trkpt lat="50.606370" lon="4.929289"><time>2026-05-03T02:55:54Z</time></trkpt>
<trkpt lat="50.605504" lon="4.929971"><time>2026-05-03T03:05:54Z</time></trkpt>
<trkpt lat="50.602786" lon="4.930490"><time>2026-05-03T03:15:54Z</time></trkpt>
<trkpt lat="50.600858" lon="4.929563"><time>2026-05-03T03:25:54Z</time></trkpt>
</trkseg>
</trk>
<trk>
<name>negbl10</name>
<cmt>r</cmt>
<desc>Bolinne Chemin n°10 Rue ès Bois</desc>
<link href="https://chemins.be/bolinne/chemin/10"/><trkseg>
<trkpt lat="50.601440" lon="4.937466"><time>2026-05-03T02:15:54Z</time></trkpt>
<trkpt lat="50.605245" lon="4.938798"><time>2026-05-03T02:25:54Z</time></trkpt>
<trkpt lat="50.608075" lon="4.941135"><time>2026-05-03T02:35:54Z</time></trkpt>
<trkpt lat="50.609844" lon="4.943290"><time>2026-05-03T02:45:54Z</time></trkpt>
</trkseg>
</trk>
<trk>
<name>negbl11</name>
<cmt>r</cmt>
<desc>Bolinne Chemin n°11 Rue ès Bois / Rue Es Bois</desc>
<link href="https://chemins.be/bolinne/chemin/11"/><trkseg>
<trkpt lat="50.602768" lon="4.930490"><time>2026-05-03T02:15:54Z</time></trkpt>
<trkpt lat="50.602553" lon="4.932295"><time>2026-05-03T02:25:54Z</time></trkpt>
<trkpt lat="50.602753" lon="4.933753"><time>2026-05-03T02:35:54Z</time></trkpt>
<trkpt lat="50.602675" lon="4.936747"><time>2026-05-03T02:45:54Z</time></trkpt>
<trkpt lat="50.602427" lon="4.937775"><time>2026-05-03T02:55:54Z</time></trkpt>
</trkseg>
</trk>
<trk>
<name>negbl12</name>
<cmt>r</cmt>
<desc>Bolinne Chemin n°12 Rue Adolphe Donneux</desc>
<link href="https://chemins.be/bolinne/chemin/12"/><trkseg>
<trkpt lat="50.600890" lon="4.928490"><time>2026-05-03T02:15:54Z</time></trkpt>
<trkpt lat="50.600795" lon="4.929562"><time>2026-05-03T02:25:54Z</time></trkpt>
<trkpt lat="50.600510" lon="4.930887"><time>2026-05-03T02:35:54Z</time></trkpt>
<trkpt lat="50.600298" lon="4.931958"><time>2026-05-03T02:45:54Z</time></trkpt>
</trkseg>
</trk>
<trk>
<name>negbl13</name>
<cmt>r</cmt>
<desc>Bolinne Chemin n°13 Rue Adolphe Doneux</desc>
<link href="https://chemins.be/bolinne/chemin/13"/><trkseg>
<trkpt lat="50.600640" lon="4.929998"><time>2026-05-03T02:15:54Z</time></trkpt>
<trkpt lat="50.600024" lon="4.929157"><time>2026-05-03T02:25:54Z</time></trkpt>
</trkseg></trk>
<trk>
<name>negbl13</name>
<cmt>v</cmt>
<desc>Bolinne Chemin n°13 Rue Adolphe Doneux</desc>
<link href="https://chemins.be/bolinne/chemin/13"/><trkseg>
<trkpt lat="50.600024" lon="4.929157"><time>2026-05-03T02:25:54Z</time></trkpt>
<trkpt lat="50.600061" lon="4.929003"><time>2026-05-03T02:35:54Z</time></trkpt>
<trkpt lat="50.599819" lon="4.928760"><time>2026-05-03T02:45:54Z</time></trkpt>
<trkpt lat="50.599244" lon="4.928597"><time>2026-05-03T02:55:54Z</time></trkpt>
<trkpt lat="50.599189" lon="4.928865"><time>2026-05-03T03:05:54Z</time></trkpt>
</trkseg>
</trk>
<trk>
<name>negbl14</name>
<cmt>r</cmt>
<desc>Bolinne Chemin n°14 Rue Adolphe Doneux</desc>
<link href="https://chemins.be/bolinne/chemin/14"/><trkseg>
<trkpt lat="50.600494" lon="4.930477"><time>2026-05-03T02:15:54Z</time></trkpt>
<trkpt lat="50.600162" lon="4.930247"><time>2026-05-03T02:25:54Z</time></trkpt>
<trkpt lat="50.599832" lon="4.929706"><time>2026-05-03T02:35:54Z</time></trkpt>
<trkpt lat="50.600034" lon="4.929016"><time>2026-05-03T02:45:54Z</time></trkpt>
</trkseg>
</trk>
<trk>
<name>negbl15</name>
<cmt>v</cmt>
<desc>Bolinne Chemin n°15 </desc>
<link href="https://chemins.be/bolinne/chemin/15"/><trkseg>
<trkpt lat="50.606901" lon="4.929282"><time>2026-05-03T02:15:54Z</time></trkpt>
<trkpt lat="50.606960" lon="4.930031"><time>2026-05-03T02:25:54Z</time></trkpt>
<trkpt lat="50.606959" lon="4.930370"><time>2026-05-03T02:35:54Z</time></trkpt>
<trkpt lat="50.606770" lon="4.930340"><time>2026-05-03T02:45:54Z</time></trkpt>
</trkseg>
</trk>
<trk>
<name>negbl16</name>
<cmt>q</cmt>
<desc>Bolinne Chemin n°16 </desc>
<link href="https://chemins.be/bolinne/chemin/16"/><trkseg>
<trkpt lat="50.613431" lon="4.915441"><time>2026-05-03T02:15:54Z</time></trkpt>
<trkpt lat="50.612550" lon="4.913495"><time>2026-05-03T02:25:54Z</time></trkpt>
</trkseg></trk>
<trk>
<name>negbl16</name>
<cmt>s</cmt>
<desc>Bolinne Chemin n°16 </desc>
<link href="https://chemins.be/bolinne/chemin/16"/><trkseg>
<trkpt lat="50.612550" lon="4.913495"><time>2026-05-03T02:25:54Z</time></trkpt>
<trkpt lat="50.613824" lon="4.912012"><time>2026-05-03T02:35:54Z</time></trkpt>
</trkseg>
</trk>
<trk>
<name>negbl17</name>
<cmt>v</cmt>
<desc>Bolinne Chemin n°17 </desc>
<link href="https://chemins.be/bolinne/chemin/17"/><trkseg>
<trkpt lat="50.608407" lon="4.915087"><time>2026-05-03T02:15:54Z</time></trkpt>
<trkpt lat="50.608420" lon="4.916047"><time>2026-05-03T02:25:54Z</time></trkpt>
</trkseg>
</trk>
<trk>
<name>negbl18</name>
<cmt>s</cmt>
<desc>Bolinne Chemin n°18 </desc>
<link href="https://chemins.be/bolinne/chemin/18"/><trkseg>
<trkpt lat="50.609183" lon="4.916367"><time>2026-05-03T02:15:54Z</time></trkpt>
<trkpt lat="50.609877" lon="4.915923"><time>2026-05-03T02:25:54Z</time></trkpt>
<trkpt lat="50.610452" lon="4.916127"><time>2026-05-03T02:35:54Z</time></trkpt>
</trkseg>
</trk>
<trk>
<name>negbl19</name>
<cmt>s</cmt>
<desc>Bolinne Chemin n°19 </desc>
<link href="https://chemins.be/bolinne/chemin/19"/><trkseg>
<trkpt lat="50.603090" lon="4.909982"><time>2026-05-03T02:15:54Z</time></trkpt>
<trkpt lat="50.604353" lon="4.909106"><time>2026-05-03T02:25:54Z</time></trkpt>
<trkpt lat="50.607171" lon="4.908178"><time>2026-05-03T02:35:54Z</time></trkpt>
</trkseg>
</trk>
<trk>
<name>negbl2</name>
<cmt>r</cmt>
<desc>Bolinne Chemin n°2 Rue de Bolinne / Rue de Bolline</desc>
<link href="https://chemins.be/bolinne/chemin/2"/><trkseg>
<trkpt lat="50.600900" lon="4.928405"><time>2026-05-03T02:15:54Z</time></trkpt>
<trkpt lat="50.599905" lon="4.927687"><time>2026-05-03T02:25:54Z</time></trkpt>
<trkpt lat="50.597535" lon="4.926896"><time>2026-05-03T02:35:54Z</time></trkpt>
<trkpt lat="50.595732" lon="4.924290"><time>2026-05-03T02:45:54Z</time></trkpt>
<trkpt lat="50.593959" lon="4.922843"><time>2026-05-03T02:55:54Z</time></trkpt>
</trkseg>
</trk>
<trk>
<name>negbl20</name>
<cmt>r</cmt>
<desc>Bolinne Chemin n°20 Route de Ramillies</desc>
<link href="https://chemins.be/bolinne/chemin/20"/><trkseg>
<trkpt lat="50.607213" lon="4.914578"><time>2026-05-03T02:15:54Z</time></trkpt>
<trkpt lat="50.607361" lon="4.911896"><time>2026-05-03T02:25:54Z</time></trkpt>
</trkseg></trk>
<trk>
<name>negbl20</name>
<cmt>s</cmt>
<desc>Bolinne Chemin n°20 Route de Ramillies</desc>
<link href="https://chemins.be/bolinne/chemin/20"/><trkseg>
<trkpt lat="50.607361" lon="4.911896"><time>2026-05-03T02:25:54Z</time></trkpt>
<trkpt lat="50.603237" lon="4.911255"><time>2026-05-03T02:35:54Z</time></trkpt>
</trkseg>
</trk>
<trk>
<name>negbl21</name>
<cmt>r</cmt>
<desc>Bolinne Chemin n°21 Ruelle Piron</desc>
<link href="https://chemins.be/bolinne/chemin/21"/><trkseg>
<trkpt lat="50.604993" lon="4.914524"><time>2026-05-03T02:15:54Z</time></trkpt>
<trkpt lat="50.604893" lon="4.914735"><time>2026-05-03T02:25:54Z</time></trkpt>
<trkpt lat="50.604236" lon="4.914982"><time>2026-05-03T02:35:54Z</time></trkpt>
<trkpt lat="50.603913" lon="4.914851"><time>2026-05-03T02:45:54Z</time></trkpt>
<trkpt lat="50.603897" lon="4.914441"><time>2026-05-03T02:55:54Z</time></trkpt>
</trkseg>
</trk>
<trk>
<name>negbl22</name>
<cmt>s</cmt>
<desc>Bolinne Chemin n°22 </desc>
<link href="https://chemins.be/bolinne/chemin/22"/><trkseg>
<trkpt lat="50.600244" lon="4.931985"><time>2026-05-03T02:15:54Z</time></trkpt>
<trkpt lat="50.598924" lon="4.935360"><time>2026-05-03T02:25:54Z</time></trkpt>
</trkseg></trk>
<trk>
<name>negbl22</name>
<cmt>r</cmt>
<desc>Bolinne Chemin n°22 </desc>
<link href="https://chemins.be/bolinne/chemin/22"/><trkseg>
<trkpt lat="50.598924" lon="4.935360"><time>2026-05-03T02:25:54Z</time></trkpt>
<trkpt lat="50.597054" lon="4.940832"><time>2026-05-03T02:35:54Z</time></trkpt>
</trkseg>
</trk>
<trk>
<name>negbl23</name>
<cmt>v</cmt>
<desc>Bolinne Sentier n°23 </desc>
<link href="https://chemins.be/bolinne/sentier/23"/><trkseg>
<trkpt lat="50.605460" lon="4.929844"><time>2026-05-03T02:15:54Z</time></trkpt>
<trkpt lat="50.605554" lon="4.928941"><time>2026-05-03T02:25:54Z</time></trkpt>
</trkseg></trk>
<trk>
<name>negbl23</name>
<cmt>s</cmt>
<desc>Bolinne Sentier n°23 </desc>
<link href="https://chemins.be/bolinne/sentier/23"/><trkseg>
<trkpt lat="50.605554" lon="4.928941"><time>2026-05-03T02:25:54Z</time></trkpt>
<trkpt lat="50.605693" lon="4.927996"><time>2026-05-03T02:35:54Z</time></trkpt>
<trkpt lat="50.605544" lon="4.927288"><time>2026-05-03T02:45:54Z</time></trkpt>
<trkpt lat="50.606162" lon="4.924074"><time>2026-05-03T02:55:54Z</time></trkpt>
<trkpt lat="50.606157" lon="4.923170"><time>2026-05-03T03:05:54Z</time></trkpt>
<trkpt lat="50.606517" lon="4.921224"><time>2026-05-03T03:15:54Z</time></trkpt>
<trkpt lat="50.606702" lon="4.920040"><time>2026-05-03T03:25:54Z</time></trkpt>
<trkpt lat="50.606855" lon="4.918120"><time>2026-05-03T03:35:54Z</time></trkpt>
</trkseg>
</trk>
<trk>
<name>negbl24</name>
<cmt>s</cmt>
<desc>Bolinne Sentier n°24 </desc>
<link href="https://chemins.be/bolinne/sentier/24"/><trkseg>
<trkpt lat="50.605170" lon="4.930207"><time>2026-05-03T02:15:54Z</time></trkpt>
<trkpt lat="50.605042" lon="4.932650"><time>2026-05-03T02:25:54Z</time></trkpt>
<trkpt lat="50.605304" lon="4.934080"><time>2026-05-03T02:35:54Z</time></trkpt>
<trkpt lat="50.605193" lon="4.938430"><time>2026-05-03T02:45:54Z</time></trkpt>
</trkseg>
</trk>
<trk>
<name>negbl25</name>
<cmt>s</cmt>
<desc>Bolinne Sentier n°25 </desc>
<link href="https://chemins.be/bolinne/sentier/25"/><trkseg>
<trkpt lat="50.603788" lon="4.924187"><time>2026-05-03T02:15:54Z</time></trkpt>
<trkpt lat="50.604217" lon="4.926566"><time>2026-05-03T02:25:54Z</time></trkpt>
<trkpt lat="50.603785" lon="4.928552"><time>2026-05-03T02:35:54Z</time></trkpt>
</trkseg>
</trk>
<trk>
<name>negbl26</name>
<cmt>s</cmt>
<desc>Bolinne Sentier n°26 Rue Ernest Feron</desc>
<link href="https://chemins.be/bolinne/sentier/26"/><trkseg>
<trkpt lat="50.610159" lon="4.928444"><time>2026-05-03T02:15:54Z</time></trkpt>
<trkpt lat="50.609682" lon="4.928679"><time>2026-05-03T02:25:54Z</time></trkpt>
<trkpt lat="50.608281" lon="4.928252"><time>2026-05-03T02:35:54Z</time></trkpt>
<trkpt lat="50.607514" lon="4.928936"><time>2026-05-03T02:45:54Z</time></trkpt>
<trkpt lat="50.607054" lon="4.929128"><time>2026-05-03T02:55:54Z</time></trkpt>
<trkpt lat="50.606066" lon="4.929003"><time>2026-05-03T03:05:54Z</time></trkpt>
<trkpt lat="50.605545" lon="4.928983"><time>2026-05-03T03:15:54Z</time></trkpt>
<trkpt lat="50.603784" lon="4.928609"><time>2026-05-03T03:25:54Z</time></trkpt>
</trkseg>
</trk>
<trk>
<name>negbl27</name>
<cmt>v</cmt>
<desc>Bolinne Sentier n°27 </desc>
<link href="https://chemins.be/bolinne/sentier/27"/><trkseg>
<trkpt lat="50.609637" lon="4.928608"><time>2026-05-03T02:15:54Z</time></trkpt>
<trkpt lat="50.609056" lon="4.929717"><time>2026-05-03T02:25:54Z</time></trkpt>
</trkseg></trk>
<trk>
<name>negbl27</name>
<cmt>s</cmt>
<desc>Bolinne Sentier n°27 </desc>
<link href="https://chemins.be/bolinne/sentier/27"/><trkseg>
<trkpt lat="50.609056" lon="4.929717"><time>2026-05-03T02:25:54Z</time></trkpt>
<trkpt lat="50.608666" lon="4.930546"><time>2026-05-03T02:35:54Z</time></trkpt>
<trkpt lat="50.607772" lon="4.931270"><time>2026-05-03T02:45:54Z</time></trkpt>
<trkpt lat="50.607118" lon="4.930923"><time>2026-05-03T02:55:54Z</time></trkpt>
<trkpt lat="50.605392" lon="4.932753"><time>2026-05-03T03:05:54Z</time></trkpt>
<trkpt lat="50.605341" lon="4.933996"><time>2026-05-03T03:15:54Z</time></trkpt>
</trkseg>
</trk>
<trk>
<name>negbl28</name>
<cmt>s</cmt>
<desc>Bolinne Sentier n°28 </desc>
<link href="https://chemins.be/bolinne/sentier/28"/><trkseg>
<trkpt lat="50.606505" lon="4.933077"><time>2026-05-03T02:15:54Z</time></trkpt>
<trkpt lat="50.609397" lon="4.935598"><time>2026-05-03T02:25:54Z</time></trkpt>
<trkpt lat="50.611743" lon="4.939357"><time>2026-05-03T02:35:54Z</time></trkpt>
<trkpt lat="50.612731" lon="4.941389"><time>2026-05-03T02:45:54Z</time></trkpt>
</trkseg>
</trk>
<trk>
<name>negbl29</name>
<cmt>q</cmt>
<desc>Bolinne Sentier n°29 </desc>
<link href="https://chemins.be/bolinne/sentier/29"/><trkseg>
<trkpt lat="50.598802" lon="4.927095"><time>2026-05-03T02:15:54Z</time></trkpt>
<trkpt lat="50.599939" lon="4.926247"><time>2026-05-03T02:25:54Z</time></trkpt>
<trkpt lat="50.601726" lon="4.926691"><time>2026-05-03T02:35:54Z</time></trkpt>
<trkpt lat="50.602382" lon="4.926629"><time>2026-05-03T02:45:54Z</time></trkpt>
</trkseg>
</trk>
<trk>
<name>negbl3</name>
<cmt>r</cmt>
<desc>Bolinne Chemin n°3 Rue du Bois Alexandre / Rue Ernest Féron</desc>
<link href="https://chemins.be/bolinne/chemin/3"/><trkseg>
<trkpt lat="50.590623" lon="4.934130"><time>2026-05-03T02:15:54Z</time></trkpt>
<trkpt lat="50.594192" lon="4.932252"><time>2026-05-03T02:25:54Z</time></trkpt>
<trkpt lat="50.599165" lon="4.932015"><time>2026-05-03T02:35:54Z</time></trkpt>
<trkpt lat="50.602588" lon="4.932409"><time>2026-05-03T02:45:54Z</time></trkpt>
<trkpt lat="50.605329" lon="4.932668"><time>2026-05-03T02:55:54Z</time></trkpt>
<trkpt lat="50.611068" lon="4.933979"><time>2026-05-03T03:05:54Z</time></trkpt>
<trkpt lat="50.611623" lon="4.934382"><time>2026-05-03T03:15:54Z</time></trkpt>
</trkseg>
</trk>
<trk>
<name>negbl30</name>
<cmt>v</cmt>
<desc>Bolinne Sentier n°30 </desc>
<link href="https://chemins.be/bolinne/sentier/30"/><trkseg>
<trkpt lat="50.599208" lon="4.928625"><time>2026-05-03T02:15:54Z</time></trkpt>
<trkpt lat="50.598392" lon="4.928163"><time>2026-05-03T02:25:54Z</time></trkpt>
</trkseg>
</trk>
<trk>
<name>negbl31</name>
<cmt>q</cmt>
<desc>Bolinne Sentier n°31 </desc>
<link href="https://chemins.be/bolinne/sentier/31"/><trkseg>
<trkpt lat="50.600666" lon="4.930267"><time>2026-05-03T02:15:54Z</time></trkpt>
<trkpt lat="50.602037" lon="4.931159"><time>2026-05-03T02:25:54Z</time></trkpt>
</trkseg>
</trk>
<trk>
<name>negbl32</name>
<cmt>q</cmt>
<desc>Bolinne Sentier n°32 </desc>
<link href="https://chemins.be/bolinne/sentier/32"/><trkseg>
<trkpt lat="50.601764" lon="4.930026"><time>2026-05-03T02:15:54Z</time></trkpt>
<trkpt lat="50.600917" lon="4.930369"><time>2026-05-03T02:25:54Z</time></trkpt>
</trkseg>
</trk>
<trk>
<name>negbl33</name>
<cmt>s</cmt>
<desc>Bolinne Sentier n°33 </desc>
<link href="https://chemins.be/bolinne/sentier/33"/><trkseg>
<trkpt lat="50.598285" lon="4.928035"><time>2026-05-03T02:15:54Z</time></trkpt>
<trkpt lat="50.597945" lon="4.927819"><time>2026-05-03T02:25:54Z</time></trkpt>
<trkpt lat="50.597202" lon="4.928884"><time>2026-05-03T02:35:54Z</time></trkpt>
<trkpt lat="50.594966" lon="4.930171"><time>2026-05-03T02:45:54Z</time></trkpt>
<trkpt lat="50.592590" lon="4.930722"><time>2026-05-03T02:55:54Z</time></trkpt>
</trkseg>
</trk>
<trk>
<name>negbl34</name>
<cmt>s</cmt>
<desc>Bolinne Sentier n°34 </desc>
<link href="https://chemins.be/bolinne/sentier/34"/><trkseg>
<trkpt lat="50.607966" lon="4.941289"><time>2026-05-03T02:15:54Z</time></trkpt>
<trkpt lat="50.609628" lon="4.943315"><time>2026-05-03T02:25:54Z</time></trkpt>
</trkseg>
</trk>
<trk>
<name>negbl35</name>
<cmt>s</cmt>
<desc>Bolinne Sentier n°35 </desc>
<link href="https://chemins.be/bolinne/sentier/35"/><trkseg>
<trkpt lat="50.591509" lon="4.934917"><time>2026-05-03T02:15:54Z</time></trkpt>
<trkpt lat="50.592065" lon="4.933441"><time>2026-05-03T02:25:54Z</time></trkpt>
<trkpt lat="50.592426" lon="4.933191"><time>2026-05-03T02:35:54Z</time></trkpt>
</trkseg></trk>
<trk>
<name>negbl35</name>
<cmt>v</cmt>
<desc>Bolinne Sentier n°35 </desc>
<link href="https://chemins.be/bolinne/sentier/35"/><trkseg>
<trkpt lat="50.592426" lon="4.933191"><time>2026-05-03T02:35:54Z</time></trkpt>
<trkpt lat="50.592440" lon="4.932026"><time>2026-05-03T02:45:54Z</time></trkpt>
<trkpt lat="50.592492" lon="4.930706"><time>2026-05-03T02:55:54Z</time></trkpt>
<trkpt lat="50.592653" lon="4.928943"><time>2026-05-03T03:05:54Z</time></trkpt>
</trkseg></trk>
<trk>
<name>negbl35</name>
<cmt>s</cmt>
<desc>Bolinne Sentier n°35 </desc>
<link href="https://chemins.be/bolinne/sentier/35"/><trkseg>
<trkpt lat="50.592653" lon="4.928943"><time>2026-05-03T03:05:54Z</time></trkpt>
<trkpt lat="50.592757" lon="4.927941"><time>2026-05-03T03:15:54Z</time></trkpt>
<trkpt lat="50.593011" lon="4.927422"><time>2026-05-03T03:25:54Z</time></trkpt>
<trkpt lat="50.593248" lon="4.922919"><time>2026-05-03T03:35:54Z</time></trkpt>
</trkseg>
</trk>
<trk>
<name>negbl36</name>
<cmt>q</cmt>
<desc>Bolinne Sentier n°36 </desc>
<link href="https://chemins.be/bolinne/sentier/36"/><trkseg>
<trkpt lat="50.606810" lon="4.918120"><time>2026-05-03T02:15:54Z</time></trkpt>
<trkpt lat="50.606246" lon="4.917576"><time>2026-05-03T02:25:54Z</time></trkpt>
<trkpt lat="50.605230" lon="4.917706"><time>2026-05-03T02:35:54Z</time></trkpt>
<trkpt lat="50.603527" lon="4.918392"><time>2026-05-03T02:45:54Z</time></trkpt>
<trkpt lat="50.603475" lon="4.918863"><time>2026-05-03T02:55:54Z</time></trkpt>
</trkseg></trk>
<trk>
<name>negbl36</name>
<cmt>r</cmt>
<desc>Bolinne Sentier n°36 </desc>
<link href="https://chemins.be/bolinne/sentier/36"/><trkseg>
<trkpt lat="50.603475" lon="4.918863"><time>2026-05-03T02:55:54Z</time></trkpt>
<trkpt lat="50.601784" lon="4.919248"><time>2026-05-03T03:05:54Z</time></trkpt>
</trkseg></trk>
<trk>
<name>negbl36</name>
<cmt>s</cmt>
<desc>Bolinne Sentier n°36 </desc>
<link href="https://chemins.be/bolinne/sentier/36"/><trkseg>
<trkpt lat="50.601784" lon="4.919248"><time>2026-05-03T03:05:54Z</time></trkpt>
<trkpt lat="50.600179" lon="4.919229"><time>2026-05-03T03:15:54Z</time></trkpt>
<trkpt lat="50.597576" lon="4.918337"><time>2026-05-03T03:25:54Z</time></trkpt>
</trkseg>
</trk>
<trk>
<name>negbl37</name>
<cmt>r</cmt>
<desc>Bolinne Sentier n°37 Route de la Hesbaye</desc>
<link href="https://chemins.be/bolinne/sentier/37"/><trkseg>
<trkpt lat="50.614032" lon="4.911775"><time>2026-05-03T02:15:54Z</time></trkpt>
<trkpt lat="50.614946" lon="4.910528"><time>2026-05-03T02:25:54Z</time></trkpt>
<trkpt lat="50.617066" lon="4.904999"><time>2026-05-03T02:35:54Z</time></trkpt>
</trkseg></trk>
<trk>
<name>negbl37</name>
<cmt>s</cmt>
<desc>Bolinne Sentier n°37 Route de la Hesbaye</desc>
<link href="https://chemins.be/bolinne/sentier/37"/><trkseg>
<trkpt lat="50.617066" lon="4.904999"><time>2026-05-03T02:35:54Z</time></trkpt>
<trkpt lat="50.619040" lon="4.903427"><time>2026-05-03T02:45:54Z</time></trkpt>
</trkseg>
</trk>
<trk>
<name>negbl38</name>
<cmt>r</cmt>
<desc>Bolinne Sentier n°38 </desc>
<link href="https://chemins.be/bolinne/sentier/38"/><trkseg>
<trkpt lat="50.605262" lon="4.920461"><time>2026-05-03T02:15:54Z</time></trkpt>
<trkpt lat="50.607987" lon="4.922033"><time>2026-05-03T02:25:54Z</time></trkpt>
<trkpt lat="50.609442" lon="4.922389"><time>2026-05-03T02:35:54Z</time></trkpt>
</trkseg>
</trk>
<trk>
<name>negbl39</name>
<cmt>s</cmt>
<desc>Bolinne Sentier n°39 </desc>
<link href="https://chemins.be/bolinne/sentier/39"/><trkseg>
<trkpt lat="50.613411" lon="4.915738"><time>2026-05-03T02:15:54Z</time></trkpt>
<trkpt lat="50.612396" lon="4.917478"><time>2026-05-03T02:25:54Z</time></trkpt>
<trkpt lat="50.612331" lon="4.917859"><time>2026-05-03T02:35:54Z</time></trkpt>
<trkpt lat="50.612070" lon="4.918011"><time>2026-05-03T02:45:54Z</time></trkpt>
<trkpt lat="50.611807" lon="4.918489"><time>2026-05-03T02:55:54Z</time></trkpt>
</trkseg>
</trk>
<trk>
<name>negbl4</name>
<cmt>r</cmt>
<desc>Bolinne Chemin n°4 Rue Joseph Bouché / Rue d'Harlue</desc>
<link href="https://chemins.be/bolinne/chemin/4"/><trkseg>
<trkpt lat="50.600936" lon="4.928307"><time>2026-05-03T02:15:54Z</time></trkpt>
<trkpt lat="50.601225" lon="4.928112"><time>2026-05-03T02:25:54Z</time></trkpt>
<trkpt lat="50.602061" lon="4.927953"><time>2026-05-03T02:35:54Z</time></trkpt>
<trkpt lat="50.602337" lon="4.926812"><time>2026-05-03T02:45:54Z</time></trkpt>
<trkpt lat="50.603806" lon="4.924046"><time>2026-05-03T02:55:54Z</time></trkpt>
<trkpt lat="50.604349" lon="4.921439"><time>2026-05-03T03:05:54Z</time></trkpt>
<trkpt lat="50.607997" lon="4.916113"><time>2026-05-03T03:15:54Z</time></trkpt>
<trkpt lat="50.608255" lon="4.914943"><time>2026-05-03T03:25:54Z</time></trkpt>
<trkpt lat="50.608640" lon="4.913366"><time>2026-05-03T03:35:54Z</time></trkpt>
<trkpt lat="50.608461" lon="4.913137"><time>2026-05-03T03:45:54Z</time></trkpt>
</trkseg>
</trk>
<trk>
<name>negbl40</name>
<cmt>s</cmt>
<desc>Bolinne Sentier n°40 </desc>
<link href="https://chemins.be/bolinne/sentier/40"/><trkseg>
<trkpt lat="50.595445" lon="4.924018"><time>2026-05-03T02:15:54Z</time></trkpt>
<trkpt lat="50.595119" lon="4.922645"><time>2026-05-03T02:25:54Z</time></trkpt>
</trkseg>
</trk>
<trk>
<name>negbl41</name>
<cmt>s</cmt>
<desc>Bolinne Sentier n°41 Rue Adolphe Doneux / Rue Es Bois</desc>
<link href="https://chemins.be/bolinne/sentier/41"/><trkseg>
<trkpt lat="50.599229" lon="4.931846"><time>2026-05-03T02:15:54Z</time></trkpt>
<trkpt lat="50.599937" lon="4.932193"><time>2026-05-03T02:25:54Z</time></trkpt>
<trkpt lat="50.599983" lon="4.932067"><time>2026-05-03T02:35:54Z</time></trkpt>
<trkpt lat="50.600324" lon="4.932071"><time>2026-05-03T02:45:54Z</time></trkpt>
<trkpt lat="50.602390" lon="4.932463"><time>2026-05-03T02:55:54Z</time></trkpt>
</trkseg>
</trk>
<trk>
<name>negbl42</name>
<cmt>v</cmt>
<desc>Bolinne Sentier n°42 </desc>
<link href="https://chemins.be/bolinne/sentier/42"/><trkseg>
<trkpt lat="50.610285" lon="4.928417"><time>2026-05-03T02:15:54Z</time></trkpt>
<trkpt lat="50.611028" lon="4.929218"><time>2026-05-03T02:25:54Z</time></trkpt>
<trkpt lat="50.611538" lon="4.929633"><time>2026-05-03T02:35:54Z</time></trkpt>
</trkseg>
</trk>
<trk>
<name>negbl43</name>
<cmt>r</cmt>
<desc>Bolinne Sentier n°43 Rue de Franquenée</desc>
<link href="https://chemins.be/bolinne/sentier/43"/><trkseg>
<trkpt lat="50.607500" lon="4.944702"><time>2026-05-03T02:15:54Z</time></trkpt>
<trkpt lat="50.608547" lon="4.943881"><time>2026-05-03T02:25:54Z</time></trkpt>
<trkpt lat="50.609961" lon="4.943319"><time>2026-05-03T02:35:54Z</time></trkpt>
<trkpt lat="50.611024" lon="4.942880"><time>2026-05-03T02:45:54Z</time></trkpt>
<trkpt lat="50.613072" lon="4.941379"><time>2026-05-03T02:55:54Z</time></trkpt>
</trkseg>
</trk>
<trk>
<name>negbl44</name>
<cmt>s</cmt>
<desc>Bolinne Sentier n°44 </desc>
<link href="https://chemins.be/bolinne/sentier/44"/><trkseg>
<trkpt lat="50.612505" lon="4.913410"><time>2026-05-03T02:15:54Z</time></trkpt>
<trkpt lat="50.611561" lon="4.911534"><time>2026-05-03T02:25:54Z</time></trkpt>
<trkpt lat="50.611295" lon="4.906840"><time>2026-05-03T02:35:54Z</time></trkpt>
</trkseg>
</trk>
<trk>
<name>negbl46</name>
<cmt>v</cmt>
<desc>Bolinne Chemin n°46 </desc>
<link href="https://chemins.be/bolinne/chemin/46"/><trkseg>
<trkpt lat="50.605263" lon="4.938897"><time>2026-05-03T02:15:54Z</time></trkpt>
<trkpt lat="50.604656" lon="4.941687"><time>2026-05-03T02:25:54Z</time></trkpt>
</trkseg>
</trk>
<trk>
<name>negbl47</name>
<cmt>s</cmt>
<desc>Bolinne Sentier n°47 Rue Joseph Bouché</desc>
<link href="https://chemins.be/bolinne/sentier/47"/><trkseg>
<trkpt lat="50.602202" lon="4.926725"><time>2026-05-03T02:15:54Z</time></trkpt>
<trkpt lat="50.603126" lon="4.925267"><time>2026-05-03T02:25:54Z</time></trkpt>
<trkpt lat="50.603671" lon="4.924158"><time>2026-05-03T02:35:54Z</time></trkpt>
</trkseg>
</trk>
<trk>
<name>negbl48</name>
<cmt>q</cmt>
<desc>Bolinne Sentier n°48 </desc>
<link href="https://chemins.be/bolinne/sentier/48"/><trkseg>
<trkpt lat="50.604656" lon="4.941757"><time>2026-05-03T02:15:54Z</time></trkpt>
<trkpt lat="50.604450" lon="4.943280"><time>2026-05-03T02:25:54Z</time></trkpt>
<trkpt lat="50.604101" lon="4.944873"><time>2026-05-03T02:35:54Z</time></trkpt>
</trkseg>
</trk>
<trk>
<name>negbl4bis</name>
<cmt>r</cmt>
<desc>Bolinne Chemin n°4bis Rue Dujardin</desc>
<link href="https://chemins.be/bolinne/chemin/4bis"/><trkseg>
<trkpt lat="50.603714" lon="4.930233"><time>2026-05-03T02:15:54Z</time></trkpt>
<trkpt lat="50.603560" lon="4.928451"><time>2026-05-03T02:25:54Z</time></trkpt>
<trkpt lat="50.603758" lon="4.928552"><time>2026-05-03T02:35:54Z</time></trkpt>
<trkpt lat="50.603570" lon="4.928352"><time>2026-05-03T02:45:54Z</time></trkpt>
<trkpt lat="50.602106" lon="4.928038"><time>2026-05-03T02:55:54Z</time></trkpt>
</trkseg>
</trk>
<trk>
<name>negbl5</name>
<cmt>r</cmt>
<desc>Bolinne Chemin n°5 Rue du Siffleau / Rue des Nozilles</desc>
<link href="https://chemins.be/bolinne/chemin/5"/><trkseg>
<trkpt lat="50.604252" lon="4.921141"><time>2026-05-03T02:15:54Z</time></trkpt>
<trkpt lat="50.603612" lon="4.919537"><time>2026-05-03T02:25:54Z</time></trkpt>
<trkpt lat="50.603500" lon="4.918392"><time>2026-05-03T02:35:54Z</time></trkpt>
</trkseg></trk>
<trk>
<name>negbl5</name>
<cmt>s</cmt>
<desc>Bolinne Chemin n°5 Rue du Siffleau / Rue des Nozilles</desc>
<link href="https://chemins.be/bolinne/chemin/5"/><trkseg>
<trkpt lat="50.603500" lon="4.918392"><time>2026-05-03T02:35:54Z</time></trkpt>
<trkpt lat="50.603690" lon="4.918168"><time>2026-05-03T02:45:54Z</time></trkpt>
<trkpt lat="50.603661" lon="4.916656"><time>2026-05-03T02:55:54Z</time></trkpt>
<trkpt lat="50.603305" lon="4.916059"><time>2026-05-03T03:05:54Z</time></trkpt>
</trkseg></trk>
<trk>
<name>negbl5</name>
<cmt>r</cmt>
<desc>Bolinne Chemin n°5 Rue du Siffleau / Rue des Nozilles</desc>
<link href="https://chemins.be/bolinne/chemin/5"/><trkseg>
<trkpt lat="50.603305" lon="4.916059"><time>2026-05-03T03:05:54Z</time></trkpt>
<trkpt lat="50.603331" lon="4.914194"><time>2026-05-03T03:15:54Z</time></trkpt>
<trkpt lat="50.602945" lon="4.914105"><time>2026-05-03T03:25:54Z</time></trkpt>
<trkpt lat="50.603089" lon="4.910278"><time>2026-05-03T03:35:54Z</time></trkpt>
<trkpt lat="50.602943" lon="4.908878"><time>2026-05-03T03:45:54Z</time></trkpt>
<trkpt lat="50.602735" lon="4.905217"><time>2026-05-03T03:55:54Z</time></trkpt>
<trkpt lat="50.602288" lon="4.902585"><time>2026-05-03T04:05:54Z</time></trkpt>
<trkpt lat="50.601987" lon="4.901719"><time>2026-05-03T04:15:54Z</time></trkpt>
</trkseg>
</trk>
<trk>
<name>negbl6</name>
<cmt>r</cmt>
<desc>Bolinne Chemin n°6 Rue Léon Hanozet</desc>
<link href="https://chemins.be/bolinne/chemin/6"/><trkseg>
<trkpt lat="50.608052" lon="4.916029"><time>2026-05-03T02:15:54Z</time></trkpt>
<trkpt lat="50.608429" lon="4.916076"><time>2026-05-03T02:25:54Z</time></trkpt>
<trkpt lat="50.610258" lon="4.917128"><time>2026-05-03T02:35:54Z</time></trkpt>
<trkpt lat="50.611681" lon="4.918530"><time>2026-05-03T02:45:54Z</time></trkpt>
</trkseg>
</trk>
<trk>
<name>negbl7</name>
<cmt>r</cmt>
<desc>Bolinne Chemin n°7 Route de la Hesbaye</desc>
<link href="https://chemins.be/bolinne/chemin/7"/><trkseg>
<trkpt lat="50.614050" lon="4.913682"><time>2026-05-03T02:15:54Z</time></trkpt>
<trkpt lat="50.612794" lon="4.907324"><time>2026-05-03T02:25:54Z</time></trkpt>
<trkpt lat="50.612802" lon="4.905713"><time>2026-05-03T02:35:54Z</time></trkpt>
</trkseg>
</trk>
<trk>
<name>negbl8</name>
<cmt>r</cmt>
<desc>Bolinne Chemin n°8 Rue du Ruau / ? / Rue ès Bois</desc>
<link href="https://chemins.be/bolinne/chemin/8"/><trkseg>
<trkpt lat="50.598774" lon="4.927278"><time>2026-05-03T02:15:54Z</time></trkpt>
<trkpt lat="50.598266" lon="4.928176"><time>2026-05-03T02:25:54Z</time></trkpt>
<trkpt lat="50.599157" lon="4.931760"><time>2026-05-03T02:35:54Z</time></trkpt>
</trkseg></trk>
<trk>
<name>negbl8</name>
<cmt>s</cmt>
<desc>Bolinne Chemin n°8 Rue du Ruau / ? / Rue ès Bois</desc>
<link href="https://chemins.be/bolinne/chemin/8"/><trkseg>
<trkpt lat="50.599157" lon="4.931760"><time>2026-05-03T02:35:54Z</time></trkpt>
<trkpt lat="50.601092" lon="4.936925"><time>2026-05-03T02:45:54Z</time></trkpt>
</trkseg></trk>
<trk>
<name>negbl8</name>
<cmt>r</cmt>
<desc>Bolinne Chemin n°8 Rue du Ruau / ? / Rue ès Bois</desc>
<link href="https://chemins.be/bolinne/chemin/8"/><trkseg>
<trkpt lat="50.601092" lon="4.936925"><time>2026-05-03T02:45:54Z</time></trkpt>
<trkpt lat="50.601714" lon="4.938458"><time>2026-05-03T02:55:54Z</time></trkpt>
</trkseg></trk>
<trk>
<name>negbl8</name>
<cmt>s</cmt>
<desc>Bolinne Chemin n°8 Rue du Ruau / ? / Rue ès Bois</desc>
<link href="https://chemins.be/bolinne/chemin/8"/><trkseg>
<trkpt lat="50.601714" lon="4.938458"><time>2026-05-03T02:55:54Z</time></trkpt>
<trkpt lat="50.603460" lon="4.943636"><time>2026-05-03T03:05:54Z</time></trkpt>
<trkpt lat="50.603714" lon="4.944868"><time>2026-05-03T03:15:54Z</time></trkpt>
</trkseg>
</trk>
<trk>
<name>negbl9</name>
<cmt>r</cmt>
<desc>Bolinne Chemin n°9 </desc>
<link href="https://chemins.be/bolinne/chemin/9"/><trkseg>
<trkpt lat="50.604178" lon="4.921423"><time>2026-05-03T02:15:54Z</time></trkpt>
<trkpt lat="50.602785" lon="4.921392"><time>2026-05-03T02:25:54Z</time></trkpt>
<trkpt lat="50.599652" lon="4.922330"><time>2026-05-03T02:35:54Z</time></trkpt>
<trkpt lat="50.596747" lon="4.922565"><time>2026-05-03T02:45:54Z</time></trkpt>
</trkseg>
</trk>
<trk>
<name>negblL142</name>
<cmt>v</cmt>
<desc>Bolinne Chemin n°L142 Tronçon de la ligne L142 à Bolinne / RAVeL 2 L142</desc>
<link href="https://chemins.be/bolinne/chemin/L142"/><trkseg>
<trkpt lat="50.602410" lon="4.909097"><time>2026-05-03T02:15:54Z</time></trkpt>
<trkpt lat="50.602925" lon="4.908864"><time>2026-05-03T02:25:54Z</time></trkpt>
<trkpt lat="50.607093" lon="4.907198"><time>2026-05-03T02:35:54Z</time></trkpt>
<trkpt lat="50.607969" lon="4.906788"><time>2026-05-03T02:45:54Z</time></trkpt>
</trkseg>
</trk>
<trk>
<name>negblL142b</name>
<cmt>v</cmt>
<desc>Bolinne Chemin n°L142 partie b RAVeL 2 L142</desc>
<link href="https://chemins.be/bolinne/chemin/L142b"/><trkseg>
<trkpt lat="50.614277" lon="4.904323"><time>2026-05-03T02:15:54Z</time></trkpt>
<trkpt lat="50.618821" lon="4.902381"><time>2026-05-03T02:25:54Z</time></trkpt>
</trkseg>
</trk>
<trk>
<name>negblL143</name>
<cmt>q</cmt>
<desc>Bolinne Chemin n°L143 </desc>
<link href="https://chemins.be/bolinne/chemin/L143"/><trkseg>
<trkpt lat="50.614058" lon="4.904329"><time>2026-05-03T02:15:54Z</time></trkpt>
<trkpt lat="50.615628" lon="4.904897"><time>2026-05-03T02:25:54Z</time></trkpt>
<trkpt lat="50.616474" lon="4.906645"><time>2026-05-03T02:35:54Z</time></trkpt>
<trkpt lat="50.617160" lon="4.908165"><time>2026-05-03T02:45:54Z</time></trkpt>
</trkseg>
</trk>
</gpx>